[[{"header":{"parameterUnit":"m.s-1","parameterCategory":1,"la1":30.2991,"la2":30.254,"lo1":-89.0895,"lo2":-89.0444,"dy":0.0017,"dx":0.0017,"nx":28,"ny":28,"refTime":"2024-04-11T21:00:00:Z","depth":0,"parameterNumber":2,"parameterNumberName":"U-component_of_WINDS"},"data":[0,0,0,0,0,0,0,0,0,0,0,0,0,0,0,0,0,0,0,0,0,0,0,0,0,0,0,0,0,0,0,0,0,0,0,0,0,0,0,0,0,0,0,0,0,0,0,0,0,0,0,0,0,0,0,0,0,0,2.0942,2.0943,0,2.1023,2.1024,2.1025,2.102,2.1019,2.1018,2.1017,2.1106,2.1109,2.1113,0,0,0,0,0,0,0,0,0,0,0,0,0,2.0791,2.0793,2.0942,2.0943,2.0944,2.1023,2.1024,2.1025,2.102,2.1019,2.1017,2.1016,2.1105,2.1109,2.1113,0,0,0,0,0,0,0,0,0,0,0,0,0,2.0863,2.0794,2.0942,2.0951,2.0953,2.1023,2.1024,2.1026,2.1021,2.1019,2.1017,2.1015,2.1103,2.1108,2.1114,2.1182,0,0,2.113,2.1132,0,0,0,0,0,0,0,0,2.0859,2.0868,2.0949,2.095,2.0952,2.101,2.1004,2.1078,2.1021,2.0995,2.1017,2.1015,2.1076,2.1083,2.1102,2.1186,2.119,2.113,2.1133,2.1135,2.1137,0,0,0,0,0,0,0,2.0854,2.0865,2.0974,2.095,2.0952,2.0954,2.0962,2.1018,2.1045,2.0997,2.0997,2.1006,2.1076,2.1097,2.1104,2.1191,2.113,2.1135,2.1138,2.114,2.1339,2.1342,0,0,0,0,0,0,2.0846,2.0861,2.0972,2.0977,2.09,2.0958,2.0967,2.0993,2.1044,2.105,2.1008,2.1006,2.1089,2.1098,2.1108,2.1194,2.1135,2.114,2.1143,2.1337,2.134,2.1342,0,0,0,0,0,0,2.0842,2.0856,2.0968,2.0919,2.0933,2.0962,2.0992,2.0996,2.1017,2.1052,2.1057,2.1024,2.1088,2.11,2.1164,2.1197,2.1143,2.1147,2.1335,2.1338,2.1341,2.1365,0,0,0,0,0,0,2.0838,2.0854,2.0879,2.0919,2.0936,2.1021,2.0994,2.0999,2.1025,2.1023,2.1068,2.1074,2.1088,2.1156,2.1169,2.1203,2.1152,2.1332,2.1336,2.134,2.1361,2.1368,2.1374,0,0,0,0,0,2.0833,2.0883,2.088,2.0893,2.0966,2.1023,2.1033,2.1045,2.1027,2.1054,2.1077,2.1073,2.1191,2.1163,2.1177,2.1213,2.133,2.1335,2.134,2.1358,2.1367,2.1374,0,0,0,0,0,0,2.0847,2.0888,2.0885,2.0949,2.0982,2.1022,2.1055,2.1054,2.1094,2.1091,2.1107,2.1118,2.1182,2.1204,2.1172,2.1284,2.1258,2.1266,2.1267,2.1276,2.1282,2.1277,2.1156,0,0,0,0,0,2.0857,2.0897,2.0932,2.0985,2.1002,2.1026,2.1051,2.1058,2.1094,2.1108,2.1136,2.1173,2.1219,2.1248,2.1292,2.1364,2.1376,2.1396,2.1403,2.1408,2.1415,2.1459,2.1469,2.1358,2.1358,2.1358,0,0,2.0879,2.0906,2.0931,2.0989,2.1015,2.1059,2.1037,2.1084,2.1118,2.1116,2.1178,2.12,2.1242,2.1311,2.1343,2.1332,2.1449,2.1414,2.1418,2.1423,2.1465,2.1476,2.1485,2.1362,2.1361,2.136,0,0,2.0942,2.0965,2.1014,2.1041,2.1081,2.1097,2.1109,2.1149,2.1163,2.1225,2.1225,2.1267,2.1344,2.1376,2.1402,2.1479,2.1479,2.1493,2.1529,2.1571,2.158,2.1588,2.1618,2.1629,2.15,2.15,2.15,0,2.0965,2.1029,2.1039,2.1087,2.1114,2.1112,2.1164,2.119,2.1243,2.1263,2.1249,2.1348,2.1376,2.1454,2.1474,2.1494,2.1511,2.1489,2.1577,2.1585,2.1593,2.1623,2.1634,2.1502,2.1502,2.1502,2.1501,0,2.1057,2.1101,2.1136,2.1186,2.1217,2.1266,2.1287,2.1318,2.1323,2.1341,2.1407,2.1441,2.1493,2.1512,2.1517,2.1592,2.1584,2.1573,2.1548,2.1605,2.1633,2.1644,2.1505,2.1504,2.1503,2.1503,0,0,2.113,2.1186,2.1199,2.1223,2.1269,2.1305,2.1356,2.1405,2.1432,2.147,2.1515,2.1582,2.1573,2.1603,2.1612,2.1649,2.1713,2.1634,2.1636,2.165,2.1801,2.181,2.1823,2.1712,2.1714,2.1716,2.1798,0,2.12,2.1287,2.1299,2.1378,2.1422,2.1422,2.1467,2.1502,2.1521,2.1563,2.1585,2.1633,2.1616,2.1635,2.1671,2.1697,2.1744,2.1691,2.1757,2.176,2.1748,2.1837,2.1846,2.1923,2.1809,2.1811,2.1812,0,2.1292,2.1331,2.1414,2.1456,2.1475,2.1514,2.1563,2.1601,2.1642,2.1654,2.1688,2.1694,2.175,2.1722,2.1802,2.1766,2.1794,2.1811,2.1815,2.1823,2.1791,2.185,2.1947,2.196,2.1829,2.1828,2.1827,0,2.1341,2.1415,2.1474,2.1495,2.1544,2.1573,2.1595,2.1633,2.1663,2.1706,2.1727,2.1776,2.1804,2.1843,2.1864,2.1841,2.1944,2.1916,2.1958,2.1958,2.1981,2.198,2.2086,2.1996,2.1995,2.1995,2.1995,0,2.1419,2.147,2.1497,2.1534,2.1593,2.1608,2.1667,2.1689,2.1723,2.1767,2.1771,2.1813,2.1836,2.1882,2.1898,2.1964,2.1976,2.199,2.1994,2.1991,2.199,2.2011,2.2007,2.1998,2.1998,2.1997,2.1996,0,2.1484,2.1503,2.1569,2.161,2.1622,2.1664,2.1701,2.1739,2.1759,2.1814,2.1828,2.186,2.1915,2.1939,2.2006,2.2018,2.2094,2.2093,2.208,2.2082,2.2123,2.212,2.2249,2.2268,2.2163,2.2163,2.2164,0,2.1533,2.1572,2.1618,2.1647,2.167,2.1716,2.1747,2.1764,2.1796,2.1847,2.188,2.1934,2.1978,2.2067,2.2098,2.215,2.2153,2.2194,2.2161,2.2157,2.2157,2.2155,2.2161,2.2201,2.2202,2.2203,2.2203,0,2.1619,2.1627,2.167,2.1717,2.1753,2.1792,2.1829,2.1853,2.1877,2.1914,2.1969,2.2004,2.2073,2.2129,2.2184,2.221,2.2213,2.2214,2.2227,2.2225,2.2217,2.2225,2.2099,2.2211,2.221,2.221,2.2209,2.2209,2.168,2.1716,2.1754,2.1803,2.1833,2.1869,2.1907,2.1931,2.1977,2.2033,2.2041,2.2101,2.2145,2.2219,2.2247,2.2297,2.2287,2.2305,2.231,2.2315,2.2319,2.2207,2.2307,2.2307,2.2306,2.2306,2.2306,0,2.1769,2.1793,2.1838,2.189,2.1929,2.1925,2.1968,2.2002,2.2054,2.2093,2.2136,2.2202,2.2256,2.2292,2.2348,2.2381,2.2384,2.2396,2.2395,2.2402,2.2323,2.2308,2.2393,2.2393,2.2393,2.2393,2.2392,2.2392,2.1819,2.1882,2.1895,2.1973,2.1999,2.2056,2.2081,2.2116,2.2147,2.2219,2.2264,2.2286,2.2325,2.2384,2.2435,2.2445,2.2466,2.2479,2.2489,2.2415,2.2406,2.2398,2.2383,2.2483,2.2483,2.2563,2.2564,2.2564]},{"header":{"parameterUnit":"m.s-1","parameterCategory":1,"la1":30.2991,"la2":30.254,"lo1":-89.0895,"lo2":-89.0444,"dy":0.0017,"dx":0.0017,"nx":28,"ny":28,"refTime":"2024-04-11T21:00:00:Z","depth":0,"parameterNumber":3,"parameterNumberName":"V-component_of_WINDS"},"data":[0,0,0,0,0,0,0,0,0,0,0,0,0,0,0,0,0,0,0,0,0,0,0,0,0,0,0,0,0,0,0,0,0,0,0,0,0,0,0,0,0,0,0,0,0,0,0,0,0,0,0,0,0,0,0,0,0,0,-2.1698,-2.1698,0,-2.1677,-2.1677,-2.1677,-2.169,-2.169,-2.1691,-2.1692,-2.1669,-2.1668,-2.1667,0,0,0,0,0,0,0,0,0,0,0,0,0,-2.1748,-2.1747,-2.1698,-2.1698,-2.1698,-2.1677,-2.1677,-2.1677,-2.169,-2.169,-2.1691,-2.1692,-2.167,-2.1668,-2.1667,0,0,0,0,0,0,0,0,0,0,0,0,0,-2.1726,-2.1746,-2.1698,-2.1702,-2.1702,-2.1677,-2.1677,-2.1677,-2.169,-2.1691,-2.1691,-2.1692,-2.167,-2.1669,-2.1667,-2.1637,0,0,-2.1661,-2.1661,0,0,0,0,0,0,0,0,-2.1728,-2.1724,-2.1702,-2.1702,-2.1702,-2.1687,-2.1686,-2.1663,-2.1689,-2.1694,-2.1692,-2.1693,-2.1674,-2.1672,-2.1666,-2.1636,-2.1635,-2.1661,-2.166,-2.1659,-2.1659,0,0,0,0,0,0,0,-2.1729,-2.1725,-2.169,-2.1701,-2.1701,-2.1704,-2.1702,-2.1682,-2.1679,-2.1694,-2.1695,-2.1692,-2.1675,-2.1668,-2.1666,-2.1635,-2.1661,-2.166,-2.1659,-2.1658,-2.1576,-2.1575,0,0,0,0,0,0,-2.173,-2.1727,-2.1691,-2.1689,-2.1717,-2.1702,-2.17,-2.1691,-2.168,-2.1679,-2.1691,-2.1693,-2.1671,-2.1668,-2.1665,-2.1627,-2.1659,-2.1658,-2.1657,-2.1577,-2.1576,-2.1574,0,0,0,0,0,0,-2.1731,-2.1727,-2.1691,-2.1708,-2.1704,-2.17,-2.169,-2.169,-2.1683,-2.1678,-2.1677,-2.1685,-2.1671,-2.1668,-2.1643,-2.1627,-2.1657,-2.1655,-2.1578,-2.1577,-2.1575,-2.1553,0,0,0,0,0,0,-2.1733,-2.1727,-2.1717,-2.1708,-2.1703,-2.1671,-2.1689,-2.1689,-2.168,-2.1682,-2.1672,-2.1671,-2.1672,-2.1646,-2.1642,-2.1625,-2.1654,-2.158,-2.1578,-2.1576,-2.1555,-2.1551,-2.1547,0,0,0,0,0,-2.1735,-2.1712,-2.1716,-2.1712,-2.169,-2.167,-2.1667,-2.1668,-2.1679,-2.1668,-2.1664,-2.1671,-2.163,-2.1643,-2.1639,-2.1621,-2.1581,-2.1578,-2.1576,-2.1557,-2.1551,-2.1547,0,0,0,0,0,0,-2.172,-2.1711,-2.1716,-2.169,-2.168,-2.1672,-2.1658,-2.1663,-2.165,-2.1652,-2.1655,-2.1652,-2.1626,-2.1622,-2.1637,-2.159,-2.1607,-2.1603,-2.1594,-2.1589,-2.1585,-2.1586,-2.1653,0,0,0,0,0,-2.1713,-2.1698,-2.1691,-2.1669,-2.1664,-2.1662,-2.1653,-2.1655,-2.1645,-2.1641,-2.1636,-2.1625,-2.1609,-2.1599,-2.1585,-2.1555,-2.1551,-2.154,-2.1536,-2.1533,-2.1529,-2.151,-2.1504,-2.1566,-2.1566,-2.1566,0,0,-2.17,-2.1693,-2.1684,-2.1666,-2.1659,-2.1642,-2.1658,-2.1641,-2.1627,-2.1638,-2.1614,-2.161,-2.1598,-2.157,-2.1557,-2.1565,-2.1511,-2.153,-2.1527,-2.1525,-2.1506,-2.15,-2.1495,-2.1564,-2.1565,-2.1565,0,0,-2.1667,-2.1661,-2.1641,-2.1633,-2.1622,-2.162,-2.1615,-2.1605,-2.1602,-2.1578,-2.1585,-2.1569,-2.1543,-2.1534,-2.1526,-2.1486,-2.1492,-2.1482,-2.1459,-2.144,-2.1435,-2.1431,-2.1414,-2.1408,-2.1478,-2.1478,-2.1478,0,-2.1652,-2.1627,-2.163,-2.161,-2.1601,-2.161,-2.1587,-2.158,-2.1564,-2.1557,-2.1567,-2.1532,-2.1525,-2.1493,-2.1483,-2.1477,-2.147,-2.1482,-2.1436,-2.1432,-2.1428,-2.1411,-2.1405,-2.1477,-2.1477,-2.1477,-2.1477,0,-2.1607,-2.159,-2.1575,-2.1558,-2.1548,-2.1527,-2.1525,-2.1514,-2.1516,-2.1513,-2.1487,-2.1479,-2.1461,-2.1454,-2.1457,-2.1422,-2.1426,-2.1436,-2.1452,-2.142,-2.1405,-2.1399,-2.1475,-2.1475,-2.1476,-2.1476,0,0,-2.1565,-2.1549,-2.1543,-2.1534,-2.1521,-2.1507,-2.1486,-2.1469,-2.1458,-2.1447,-2.1427,-2.1404,-2.1412,-2.1402,-2.1404,-2.1387,-2.1353,-2.1399,-2.1398,-2.1388,-2.131,-2.1301,-2.1294,-2.1357,-2.1356,-2.1355,-2.131,0,-2.1529,-2.1492,-2.1492,-2.1458,-2.144,-2.1447,-2.1428,-2.1418,-2.1414,-2.1397,-2.1393,-2.1375,-2.1388,-2.1382,-2.1366,-2.136,-2.1337,-2.1364,-2.1337,-2.1336,-2.1337,-2.1287,-2.1278,-2.1236,-2.1304,-2.1303,-2.1303,0,-2.1482,-2.1468,-2.1431,-2.1418,-2.1411,-2.1394,-2.1376,-2.1362,-2.1349,-2.1347,-2.1335,-2.1338,-2.1315,-2.1333,-2.1299,-2.1318,-2.1307,-2.1302,-2.13,-2.1296,-2.1316,-2.1279,-2.1223,-2.1215,-2.1294,-2.1295,-2.1295,0,-2.1451,-2.1423,-2.1396,-2.1389,-2.1374,-2.1362,-2.1355,-2.1343,-2.1331,-2.1316,-2.1308,-2.1291,-2.128,-2.1266,-2.1264,-2.1277,-2.1229,-2.1248,-2.1224,-2.1224,-2.1213,-2.1213,-2.1152,-2.121,-2.121,-2.121,-2.121,0,-2.1409,-2.1386,-2.1382,-2.1365,-2.1338,-2.1339,-2.1312,-2.1306,-2.1295,-2.1276,-2.1282,-2.1264,-2.1263,-2.1244,-2.1243,-2.1213,-2.1209,-2.1206,-2.1205,-2.1204,-2.1204,-2.1195,-2.1197,-2.1208,-2.1209,-2.1209,-2.1209,0,-2.137,-2.1366,-2.1337,-2.1325,-2.1321,-2.1302,-2.129,-2.1274,-2.127,-2.1246,-2.124,-2.1233,-2.1211,-2.1208,-2.1183,-2.1181,-2.1145,-2.1149,-2.1149,-2.1149,-2.1125,-2.1126,-2.1054,-2.1043,-2.111,-2.111,-2.1109,0,-2.1343,-2.1324,-2.1309,-2.1297,-2.1289,-2.127,-2.1257,-2.1256,-2.1243,-2.1226,-2.121,-2.1189,-2.1171,-2.1135,-2.1128,-2.1107,-2.1109,-2.1085,-2.1106,-2.1104,-2.1105,-2.1105,-2.1101,-2.108,-2.1079,-2.1079,-2.1078,0,-2.1293,-2.1292,-2.1274,-2.1255,-2.124,-2.1225,-2.1211,-2.12,-2.1197,-2.1182,-2.1159,-2.1145,-2.1118,-2.1095,-2.1075,-2.1066,-2.107,-2.1072,-2.1065,-2.1062,-2.1062,-2.1059,-2.1135,-2.1073,-2.1074,-2.1074,-2.1074,-2.1075,-2.1257,-2.124,-2.1226,-2.1205,-2.1194,-2.118,-2.1163,-2.1156,-2.1137,-2.1114,-2.1115,-2.1089,-2.1074,-2.1046,-2.1036,-2.1015,-2.1023,-2.1013,-2.1011,-2.1008,-2.1004,-2.1067,-2.1012,-2.1012,-2.1012,-2.1012,-2.1012,0,-2.1206,-2.1197,-2.1178,-2.1157,-2.114,-2.1146,-2.113,-2.1115,-2.1092,-2.1077,-2.1059,-2.1031,-2.1009,-2.0999,-2.0976,-2.096,-2.0962,-2.0954,-2.0954,-2.0951,-2.1,-2.1007,-2.0953,-2.0953,-2.0953,-2.0953,-2.0953,-2.0953,-2.1177,-2.1148,-2.1144,-2.1108,-2.1099,-2.1073,-2.1063,-2.1049,-2.1037,-2.1006,-2.0987,-2.098,-2.0966,-2.0942,-2.0921,-2.0919,-2.0909,-2.09,-2.0898,-2.0943,-2.0949,-2.0954,-2.096,-2.0898,-2.0898,-2.0851,-2.085,-2.085]}]]